This is the latest recevied weather packets stored in our database for station/object NK7I. If no packets are shown the sender has not sent any weather packets the latest 10 day(s).
| Time | Temp. | Humidity | Pressure | Rain* | Wind** | Luminosity | Snow |
|---|---|---|---|---|---|---|---|
| 1777943482 | 22.78° C | 38% | 1007.5 hPa | 0 mm | - | 178 W/m² | - |
| 1777943182 | 23.33° C | 37% | 1007.6 hPa | 0 mm | - | 313 W/m² | - |
| 1777942882 | 23.33° C | 37% | 1007.5 hPa | 0 mm | - | 350 W/m² | - |
| 1777942582 | 23.33° C | 36% | 1007.6 hPa | 0 mm | - | 374 W/m² | - |
| 1777942282 | 23.33° C | 37% | 1007.6 hPa | 0 mm | - | 404 W/m² | - |
| 1777941982 | 23.33° C | 36% | 1007.6 hPa | 0 mm | - | 417 W/m² | - |
| 1777941682 | 23.33° C | 39% | 1007.6 hPa | 0 mm | - | 432 W/m² | - |
| 1777941382 | 23.33° C | 36% | 1007.7 hPa | 0 mm | - | 457 W/m² | - |
| 1777941082 | 23.33° C | 35% | 1007.7 hPa | 0 mm | - | 483 W/m² | - |
| 1777940783 | 23.33° C | 38% | 1007.7 hPa | 0 mm | - | 503 W/m² | - |
| 1777940482 | 23.33° C | 38% | 1007.7 hPa | 0 mm | - | 522 W/m² | - |
| 1777940182 | 23.33° C | 36% | 1007.8 hPa | 0 mm | - | 545 W/m² | - |
| 1777939882 | 23.33° C | 33% | 1007.8 hPa | 0 mm | - | 566 W/m² | - |
| 1777939582 | 23.33° C | 37% | 1007.8 hPa | 0 mm | - | 585 W/m² | - |
| 1777939282 | 22.78° C | 35% | 1007.8 hPa | 0 mm | - | 610 W/m² | - |
| 1777938982 | 22.78° C | 37% | 1007.8 hPa | 0 mm | - | 638 W/m² | - |
| 1777938682 | 22.78° C | 38% | 1007.7 hPa | 0 mm | - | 584 W/m² | - |
| 1777938382 | 22.78° C | 37% | 1007.7 hPa | 0 mm | - | 466 W/m² | - |
| 1777938082 | 23.33° C | 38% | 1007.7 hPa | 0 mm | - | 582 W/m² | - |
| 1777937782 | 23.33° C | 38% | 1007.7 hPa | 0 mm | - | 689 W/m² | - |
| 1777937483 | 23.33° C | 39% | 1007.7 hPa | 0 mm | - | 722 W/m² | - |
| 1777937183 | 23.33° C | 38% | 1007.7 hPa | 0 mm | - | 596 W/m² | - |
| 1777936883 | 23.89° C | 37% | 1007.8 hPa | 0 mm | - | 728 W/m² | - |
| 1777936582 | 23.89° C | 37% | 1007.8 hPa | 0 mm | - | 795 W/m² | - |
| 1777936282 | 23.89° C | 36% | 1007.9 hPa | 0 mm | - | 826 W/m² | - |
* Rain latest hour (hover to see other rain measurements)
** Current wind speed in m/s (hover to see current wind gust speed)